Location: Black Swamp Observatory
(41.3920°N, 84.1250°W)
Time: 03:50:53
(UTC-04:00)

Courier 1B Rocket - Pass Details

Date: 24 January 2022
Orbit: 920 x 1202 km, 28.2° (Epoch: 28 May)

Event Time Altitude Azimuth Distance (km) Brightness Sun altitude
Exits shadow 06:31:32 10° 237° (WSW) 2,752 7.0 -15.6°
Reaches altitude 10° 06:31:35 10° 237° (WSW) 2,742 6.9 -15.6°
Maximum altitude 06:35:32 17° 199° (SSW) 2,239 6.8 -14.9°
Drops below altitude 10° 06:39:23 10° 162° (SSE) 2,646 7.7 -14.2°
Sets 06:42:57 0° 142° (SE) 3,560 8.8 -13.5°
